User: anonymous   Login
Location: Unspecified
(0.0000°N, 0.0000°E)
Time: 18:15:10
(UTC+00:00)
Language:

Geosat FO - Orbit

View from above orbital plane
View from above orbital plane
View from above satellite
View from above satellite

Ground track
Ground track

The orbit data is extracted from the following two-line orbital elements,

1 25157U 98007A   21027.17335467  .00000744  00000-0  58380-4 0  9995
2 25157 108.0384 191.9055 0170432 293.3711  64.9617 15.01625572227377
Epoch (UTC): 27 January 2021 04:09:37
Eccentricity: 0.0170432
inclination: 108.0384°
perigee height: 443 km
apogee height: 680 km
right ascension of ascending node: 191.9055°
argument of perigee: 293.3711°
revolutions per day: 15.01625572
mean anomaly at epoch: 64.9617°
orbit number at epoch: 22737

The dashed part of the orbit path shows where the satellite is in the earth's shadow,  

DLR